Regional Weather Roundup
Issued by NWS

Home | Current Version | Previous Version | Graphics & Text | Print | Product List | Glossary On
Versions: 1 2 3 4 5 6 7 8 9 10 11 12 13 14 15 16 17 18 19 20 21 22 23 24 25 26 27 28 29 30 31 32 33 34 35 36 37 38 39 40 41 42 43 44 45 46 47 48 49 50
000
ASUS43 KLMK 230202
RWRKY
KENTUCKY REGIONAL WEATHER ROUNDUP
NATIONAL WEATHER SERVICE LOUISVILLE KY
1000 PM EDT SUN APR 22 2018

NOTE "FAIR" INDICATES FEW OR NO CLOUDS BELOW 12,000 FEET
WITH NO SIGNIFICANT WEATHER AND/OR OBSTRUCTIONS TO VISIBILITY.

KYZ001>023-026-027-061>063-070>075-230300-
WESTERN AND SOUTH CENTRAL KENTUCKY

CITY           SKY/WX    TMP DP  RH WIND       PRES   REMARKS
PADUCAH        LGT RAIN  58  56  93 E15G22    29.95S
HENDERSON      MOCLDY    58  54  86 E10       30.04R
OWENSBORO      LGT RAIN  59  54  83 E7        30.04S
HOPKINSVILLE   NOT AVBL
BOWLING GREEN  LGT RAIN  59  56  89 E7        30.03R
GLASGOW        NOT AVBL
$$

KYZ024-025-028>034-038-045-046-053-230300-
NORTH CENTRAL KENTUCKY

CITY           SKY/WX    TMP DP  RH WIND       PRES   REMARKS
LOUISVILLE/SDF CLOUDY    65  29  25 E14G25    30.08R
LOUISVILLE/LOU MOCLDY    63  32  31 NE12      30.09R
FORT KNOX      NOT AVBL
$$

KYZ035>037-039>044-047>052-055>060-089>105-230300-
NORTHEAST KENTUCKY

CITY           SKY/WX    TMP DP  RH WIND       PRES   REMARKS
LEXINGTON      FAIR      59  32  36 NE13      30.11S
COVINGTON      MOCLDY    61  26  26 NE17      30.14F
FRANKFORT      FAIR      63  26  24 NE10      30.10S
$$

KYZ054-064>069-076>088-106>120-230300-
SOUTHEAST KENTUCKY

CITY           SKY/WX    TMP DP  RH WIND       PRES   REMARKS
JACKSON        FAIR      64  33  31 VRB3      30.14S
LONDON         MOCLDY    64  47  53 SE9       30.10S
SOMERSET       NOT AVBL
MIDDLESBORO    FAIR      63  45  51 SE6       30.13R
MONTICELLO     CLOUDY    65  50  58 E14       30.08S
$$





USA.gov is the U.S. government's official web portal to all federal, state and local government web resources and services.